741  
FPUS83 KFGF 032110  
OPUFGF  
PRAIRIE TO PINES WEATHER ROUNDUP  
NATIONAL WEATHER SERVICE EASTERN NORTH DAKOTA/GRAND FORKS ND  
400 PM CDT MON AUG 03 2020  
 
**SATELLITE DATA USED TO AUGMENT SKY COVER AT AUTOMATED STATIONS**  
***** WEATHER ACROSS EASTERN NORTH DAKOTA *****  
 
CITY SKY/WX TMP DP RH WIND PRES REMARKS  
GRAND FORKS FAIR 77 47 34 VRB5 30.17F  
GRND FORKS AFB FAIR 76 51 42 E6 30.18F  
GRND FORKS NWS N/A 76 53 44 E7 30.13F  
BUXTON NOT AVBL  
DEVILS LAKE FAIR 75 49 39 SE10 30.18F  
FARGO FAIR 75 51 43 E12G18 30.16F  
WAHPETON ARPT NOT AVBL  

 
 
***** WEATHER ACROSS CENTRAL AND WESTERN NORTH DAKOTA *****  
 
CITY SKY/WX TMP DP RH WIND PRES REMARKS  
JAMESTOWN FAIR 75 53 46 MISG 30.16F  
BISMARCK FAIR 82 46 28 S14G25 30.13F  
MINOT FAIR 80 45 28 E17G24 30.12F  
MINOT AFB FAIR 78 50 36 S15G23 30.11F  
GARRISON N/A 77 49 37 SE14G23 30.12F  
WILLISTON NOT AVBL  
DICKINSON FAIR 80 49 33 SE21G31 30.08F  
HETTINGER FAIR 79 49 34 SE17G29 30.09F  

 
 
***** OTHER OBSERVATIONS NORTHEAST NORTH DAKOTA *****  
 
CITY SKY/WX TMP DP RH WIND PRES REMARKS  
WALHALLA FAIR 75 50 41 VRB5 30.17F  
LANGDON FAIR 75 50 41 SE6 30.20F  
CAVALIER FAIR 77 50 38 SE5 30.17F  
GRAFTON FAIR 75 50 41 CALM 30.20F  
CANDO FAIR 75 52 43 S9 30.19F  
FORT TOTTEN N/A 74 51 44 SE2 29.95S  
ROLLA FAIR 72 50 46 SE9 30.19F  
RUGBY FAIR 75 50 41 SE9G16 30.16F  
***** THE ABOVE OBSERVATIONS ARE NON NWS ARE NOT QUALITY  
CONTROLLED AND MAY MIS-REPORT RAIN FOR SNOW...  

 
 
***** OTHER OBSERVATIONS SOUTHEAST NORTH DAKOTA *****  
 
CITY SKY/WX TMP DP RH WIND PRES REMARKS  
COOPERSTOWN FAIR 75 50 41 E9G23 30.19F  
VALLEY CITY FAIR 75 50 41 E9G16 30.19F  
OAKES MOCLDY 75 52 43 NE7 30.17F  
GWINNER PTCLDY 75 52 43 NE3 30.17F  
SHEYENNE NWR N/A 76 47 35 NE7 29.95S  
BUFFALO NOT AVBL  
WYNDMERE NOT AVBL  
***** THE ABOVE OBSERVATIONS ARE NON NWS ARE NOT QUALITY  
CONTROLLED AND MAY MIS-REPORT RAIN FOR SNOW...  

 
 
***** WEATHER ACROSS NORTHERN MINNESOTA *****  
 
CITY SKY/WX TMP DP RH WIND PRES REMARKS  
FLAG ISLAND N/A 75 48 38 CALM 30.17S  
WARROAD NOT AVBL  
ROSEAU FAIR 75 55 50 N3 30.18F  
HALLOCK FAIR 81 50 34 CALM 30.17F  
THF RVR FALLS PTSUNNY 74 48 39 E6 30.20F  
HALSTAD NOT AVBL  
FOSSTON FAIR 70 45 40 E7 30.20F  
BAUDETTE FAIR 75 47 36 W9 30.19F  
WASKISH FAIR 73 48 40 W7 30.18F  
CROOKSTON FAIR 75 52 43 NE8 30.18F  

 
***** WEATHER ACROSS CENTRAL AND WEST MINNESOTA *****  
 
CITY SKY/WX TMP DP RH WIND PRES REMARKS  
BEMIDJI FAIR 70 45 41 E7 30.20F  
PARK RAPIDS FAIR 71 43 36 E8G17 30.20S  
WADENA FAIR 72 50 46 NE10 30.19S  
DETROIT LAKES N/A 72 45 37 NE9 30.20S  
MOORHEAD FAIR 75 45 33 NE9 30.18S  
FERGUS FALLS FAIR 72 48 43 E8 30.17S  
ELBOW LAKE NOT AVBL  
MORRIS MN FAIR 75 45 33 NE3 30.17F  
STAPLES FAIR 72 43 35 E6 30.19S  
WHEATON FAIR 75 48 38 N6 30.17F  

 
***** WEATHER ELSEWHERE ACROSS MINNESOTA *****  
 
CITY SKY/WX TMP DP RH WIND PRES REMARKS  
DULUTH PTSUNNY 68 45 43 CALM 30.18F  
INTRNTL FALLS FAIR 75 47 36 MISG 30.15F  
ELY PTSUNNY 70 45 40 N5 30.16S  
CLOQUET FAIR 70 43 37 N3 30.18F  
BRAINERD PTSUNNY 74 47 38 E7 30.19F  
HIBBING PTSUNNY 69 46 43 N8 30.17F  
ALEXANDRIA NOT AVBL  
SAINT CLOUD FAIR 72 48 42 VRB5 30.16F  
MINNEAPOLIS FAIR 72 47 40 E7G18 30.16F  

 
 
***** WEATHER ACROSS SOUTH DAKOTA *****  
 
CITY SKY/WX TMP DP RH WIND PRES REMARKS  
SIOUX FALLS PTSUNNY 76 48 37 MISG 30.16F  
BROOKINGS PTSUNNY 74 47 38 VRB3 30.17F  
WATERTOWN FAIR 75 47 36 VRB7 30.16F  
HURON FAIR 76 49 38 MISG 30.15F  
SISSETON N/A 74 49 41 N9 30.15F  
ABERDEEN FAIR 78 47 33 SE7 30.16F  
MITCHELL FAIR 77 49 37 SE8 30.16F  
PIERRE FAIR 79 49 34 E12G21 30.10F  
MOBRIDGE FAIR 77 51 40 SE12G24 30.12F  
RAPID CITY FAIR 83 55 38 SE13G22 30.05F  

 
 
***** SOME WEATHER IN NEARBY STATES *****  
 
CITY SKY/WX TMP DP RH WIND PRES REMARKS  
GLASGOW MT FAIR 85 48 27 SE14 29.96R  
GREAT FALLS MT FAIR 85 40 20 NE12 29.97F  
CHEYENNE WY FAIR 84 51 31 SE10G22 30.17F  
SCOTTSBLUFF NE FAIR 89 54 30 S15G25 30.05F  
OMAHA NE FAIR 77 47 34 NE10 30.14F  
DES MOINES IA FAIR 76 46 34 N12G21 30.10F  
DAVENPORT IA CLOUDY 69 54 58 N10 30.09S  
CHICAGO IL CLOUDY 69 58 67 N14 30.03S  
EAU CLAIRE WI CLOUDY 67 47 48 NE7 30.15F  
LA CROSSE WI CLOUDY 70 46 42 N12 30.12F  

 
 
***** SOME NATIONAL WEATHER *****  
 
CITY SKY/WX TMP DP RH WIND PRES REMARKS  
LA GUARDIA NY FAIR 91 60 35 S13 29.99F HX 90  
RALEIGH NC LGT RAIN 78 74 87 NE3 30.01F  
ATLANTA GA PTSUNNY 80 69 69 E5 29.95F  
NEW ORLEANS LA FAIR 95 69 42 N9 29.94F HX 100  
OKLAHOMA CITY PTSUNNY 80 59 48 NE7 30.07F  
ALBUQUERQUE NM FAIR 88 50 27 S6 30.18F  
SALT LAKE CITY FAIR 99 30 9 N9 29.98F HX 93  
LOS ANGELES CA PTSUNNY 72 62 71 W13 29.95F FOG  
BOISE ID FAIR 90 44 20 NW14 30.03F  
SEATTLE WA FAIR 78 58 49 SW8 30.18S  

 
 
*** WEATHER ACROSS MANITOBA...SASKATCHEWAN AND ONTARIO ***  
***ONTARIO***  
 
CITY SKY/WX TMP DP RH WIND PRES REMARKS  
GERALDTON PTSUNNY 59 45 58 N12 30.18S  
THUNDER BAY PTSUNNY 64 50 59 E8 30.16S  
SIOUX LOOKOUT MOSUNNY 66 46 48 NE7G17 30.19F  
TORONTO SHOWER 66 64 94 SW6 29.98R  
BIG TROUT LK SUNNY 66 52 59 SW8 30.22F  
PICKLE LAKE MOSUNNY 66 45 45 NE14G21 30.20F  
DRYDEN MOSUNNY 70 48 46 NE10G17 30.18S  
KENORA NOT AVBL  

 
*** MANITOBA***  
 
CITY SKY/WX TMP DP RH WIND PRES REMARKS  
BRANDON MOSUNNY 75 54 46 S8 30.16F  
DAUPHIN SUNNY 77 55 47 SE12 30.13F  
ISLAND LAKE NOT AVBL  
PILOT MOUND N/A 73 50 43 SE8 N/A  
THE PAS SUNNY 79 57 47 MISG 30.10F  
THOMPSON MOSUNNY 81 52 36 S7 30.12F  
WINNIPEG MOSUNNY 79 46 31 VRB2 30.15F  
LYNN LAKE MOSUNNY 79 55 44 MISG 30.05F  
CHURCHILL MOSUNNY 82 54 36 SW8 30.06F  
GILLAM PTSUNNY 81 54 39 S6 30.13F  

 
***SASKATCHEWAN***  
 
CITY SKY/WX TMP DP RH WIND PRES REMARKS  
ESTEVAN MOSUNNY 79 52 38 SE15G30 30.08F  
KINDERSLEY MOSUNNY 91 52 25 S23G30 29.81F  
LLOYDMINSTER PTSUNNY 77 61 57 S14G22 29.82S  
PRINCE ALBERT MOSUNNY 79 55 44 S20G29 29.99F  
REGINA PTSUNNY 81 50 34 SE22G28 30.03F  
YORKTON SUNNY 77 52 41 SE17G30 30.10F  
 
CLICK HERE TO GO TO PREVIOUS BULLETINS.

The Nexlab ND Page
The Nexlab MN Page Main Text Page